Location: Haliburton Scout Reserve
(45.0900°N, 78.3200°W)
Time: 18:04:12
(UTC-05:00)

Courier 1B - Pass Details

Date: 02 December 2023
Orbit: 962 x 1209 km, 28.3° (Epoch: 23 February)

Event Time Altitude Azimuth Distance (km) Brightness Sun altitude
Rises 14:01:58 0° 246° (WSW) 3,633 11.4 17.6°
Reaches altitude 10° 14:05:59 10° 223° (SW) 2,687 11.8 17.3°
Maximum altitude 14:09:10 14° 193° (SSW) 2,406 11.4 17.0°
Drops below altitude 10° 14:12:23 10° 163° (SSE) 2,714 10.6 16.7°
Sets 14:16:29 0° 139° (SE) 3,697 10.8 16.3°
